User: anonymous   Login
Location: Caltech
(34.1382°N, 118.1253°W)
Time: 17:10:15
(UTC-07:00)
Language:

Cosmos 1408 Rocket - Orbit

View from above orbital plane
View from above orbital plane
View from above satellite
View from above satellite

Ground track
Ground track

The orbit data is extracted from the following two-line orbital elements,

1 13553U 82092B   16209.98167691  .00000110  00000-0  10265-4 0  9993
2 13553  82.5693 176.1238 0022483  39.4863  20.5182 14.84067447828957
Epoch (UTC): 27 July 2016 23:33:36
Eccentricity: 0.0022483
inclination: 82.5693°
perigee height: 601 km
apogee height: 632 km
right ascension of ascending node: 176.1238°
argument of perigee: 39.4863°
revolutions per day: 14.84067447
mean anomaly at epoch: 20.5182°
orbit number at epoch: 82895

The dashed part of the orbit path shows where the satellite is in the earth's shadow,  

DLR